Time,TemperatureF,DewpointF,PressureIn,WindDirection,WindDirectionDegrees,WindSpeedMPH,WindSpeedGustMPH,Humidity,HourlyPrecipIn,Conditions,Clouds,dailyrainin,SoftwareType,DateUTC
2013-07-14 00:00:00,57.2,50.4,30.05,North,1,0.0,0.0,78,0.00,CLR,SKC,0.00,WeatherDisplay:10.37,2013-07-13 22:00:00,
2013-07-14 00:10:00,56.9,50.1,30.05,North,1,0.0,0.0,78,0.00,CLR,SKC,0.00,WeatherDisplay:10.37,2013-07-13 22:10:00,
2013-07-14 00:20:00,56.5,50.0,30.05,North,1,0.0,0.0,79,0.00,CLR,SKC,0.00,WeatherDisplay:10.37,2013-07-13 22:20:00,
2013-07-14 00:30:00,56.5,50.4,30.06,North,1,0.0,0.0,80,0.00,CLR,SKC,0.00,WeatherDisplay:10.37,2013-07-13 22:30:00,
2013-07-14 00:40:00,56.3,50.5,30.06,North,1,0.0,0.0,81,0.00,CLR,SKC,0.00,WeatherDisplay:10.37,2013-07-13 22:40:00,
2013-07-14 00:50:00,56.1,50.4,30.05,North,1,0.0,0.0,81,0.00,CLR,SKC,0.00,WeatherDisplay:10.37,2013-07-13 22:50:00,
2013-07-14 01:00:00,55.9,50.5,30.05,North,1,0.0,0.0,82,0.00,CLR,SKC,0.00,WeatherDisplay:10.37,2013-07-13 23:00:00,
2013-07-14 01:10:00,55.9,50.5,30.05,North,1,0.0,0.0,82,0.00,CLR,SKC,0.00,WeatherDisplay:10.37,2013-07-13 23:10:00,
2013-07-14 01:20:00,56.0,50.3,30.05,North,1,0.0,0.0,81,0.00,CLR,SKC,0.00,WeatherDisplay:10.37,2013-07-13 23:20:00,
2013-07-14 01:30:00,55.8,50.3,30.05,North,1,0.0,0.0,82,0.00,CLR,SKC,0.00,WeatherDisplay:10.37,2013-07-13 23:30:00,
2013-07-14 01:40:00,55.8,50.0,30.05,North,1,0.0,0.0,81,0.00,CLR,SKC,0.00,WeatherDisplay:10.37,2013-07-13 23:40:00,
2013-07-14 01:50:00,56.1,50.7,30.05,North,1,0.0,0.0,82,0.00,CLR,SKC,0.00,WeatherDisplay:10.37,2013-07-13 23:50:00,
2013-07-14 02:00:00,56.3,50.9,30.04,North,1,0.0,0.0,82,0.00,CLR,SKC,0.00,WeatherDisplay:10.37,2013-07-14 00:00:00,
2013-07-14 02:10:00,56.6,51.1,30.05,North,1,0.0,0.0,82,0.00,CLR,SKC,0.00,WeatherDisplay:10.37,2013-07-14 00:10:00,
2013-07-14 02:20:00,56.9,51.5,30.05,North,1,0.0,0.0,82,0.00,CLR,SKC,0.00,WeatherDisplay:10.37,2013-07-14 00:20:00,
2013-07-14 02:30:00,56.8,51.1,30.05,North,1,0.0,0.0,81,0.00,CLR,SKC,0.00,WeatherDisplay:10.37,2013-07-14 00:30:00,
2013-07-14 02:40:00,56.8,50.7,30.04,North,1,0.0,0.0,80,0.00,CLR,SKC,0.00,WeatherDisplay:10.37,2013-07-14 00:40:00,
2013-07-14 02:50:00,56.8,51.1,30.04,North,1,0.0,0.0,81,0.00,CLR,SKC,0.00,WeatherDisplay:10.37,2013-07-14 00:50:00,
2013-07-14 03:00:00,56.7,50.9,30.04,North,1,0.0,0.0,81,0.00,CLR,SKC,0.00,WeatherDisplay:10.37,2013-07-14 01:00:00,
2013-07-14 03:10:00,56.8,51.1,30.04,North,1,0.0,0.0,81,0.00,CLR,SKC,0.00,WeatherDisplay:10.37,2013-07-14 01:10:00,
2013-07-14 03:20:00,57.0,51.2,30.03,North,1,0.0,0.0,81,0.00,CLR,SKC,0.00,WeatherDisplay:10.37,2013-07-14 01:20:00,
2013-07-14 03:30:00,57.0,51.2,30.03,North,1,0.0,0.0,81,0.00,CLR,SKC,0.00,WeatherDisplay:10.37,2013-07-14 01:30:00,
2013-07-14 03:40:00,57.4,51.6,30.03,North,1,0.0,0.0,81,0.00,CLR,SKC,0.00,WeatherDisplay:10.37,2013-07-14 01:40:00,
2013-07-14 03:50:00,57.6,51.8,30.03,North,1,0.0,0.0,81,0.00,CLR,SKC,0.00,WeatherDisplay:10.37,2013-07-14 01:50:00,
2013-07-14 04:00:00,57.4,51.6,30.03,North,1,0.0,0.0,81,0.00,CLR,SKC,0.00,WeatherDisplay:10.37,2013-07-14 02:00:00,
2013-07-14 04:10:00,57.2,51.8,30.03,North,1,0.0,0.0,82,0.00,CLR,SKC,0.00,WeatherDisplay:10.37,2013-07-14 02:10:00,
2013-07-14 04:20:00,57.4,51.9,30.03,North,1,0.0,0.0,82,0.00,CLR,SKC,0.00,WeatherDisplay:10.37,2013-07-14 02:20:00,
2013-07-14 04:30:00,57.4,51.9,30.03,North,1,0.0,0.0,82,0.00,CLR,SKC,0.00,WeatherDisplay:10.37,2013-07-14 02:30:00,
2013-07-14 04:40:00,57.0,51.3,30.03,North,1,0.0,0.0,81,0.00,CLR,SKC,0.00,WeatherDisplay:10.37,2013-07-14 02:40:00,
2013-07-14 04:50:00,56.7,51.3,30.02,North,1,0.0,0.0,82,0.00,CLR,SKC,0.00,WeatherDisplay:10.37,2013-07-14 02:50:00,
2013-07-14 05:00:00,56.4,51.0,30.03,North,1,0.0,0.0,82,0.00,CLR,SKC,0.00,WeatherDisplay:10.37,2013-07-14 03:00:00,
2013-07-14 05:10:00,56.3,50.9,30.03,North,1,0.0,0.0,82,0.00,CLR,SKC,0.00,WeatherDisplay:10.37,2013-07-14 03:10:00,
2013-07-14 05:20:00,56.0,50.6,30.03,North,1,0.0,0.0,82,0.00,CLR,SKC,0.00,WeatherDisplay:10.37,2013-07-14 03:20:00,
2013-07-14 05:30:00,55.6,50.2,30.03,North,1,0.0,0.0,82,0.00,CLR,SKC,0.00,WeatherDisplay:10.37,2013-07-14 03:30:00,
2013-07-14 05:40:00,55.4,50.3,30.03,North,1,0.0,0.0,83,0.00,CLR,SKC,0.00,WeatherDisplay:10.37,2013-07-14 03:40:00,
2013-07-14 05:50:00,55.2,50.1,30.03,North,1,0.0,0.0,83,0.00,CLR,SKC,0.00,WeatherDisplay:10.37,2013-07-14 03:50:00,
2013-07-14 06:00:00,55.2,50.5,30.03,North,1,0.0,0.0,84,0.00,CLR,SKC,0.00,WeatherDisplay:10.37,2013-07-14 04:00:00,
2013-07-14 06:10:00,55.6,50.8,30.03,North,1,0.0,0.0,84,0.00,CLR,SKC,0.00,WeatherDisplay:10.37,2013-07-14 04:10:00,
2013-07-14 06:20:00,56.2,51.1,30.03,North,1,0.0,0.0,83,0.00,CLR,SKC,0.00,WeatherDisplay:10.37,2013-07-14 04:20:00,
2013-07-14 06:30:00,56.9,51.8,30.03,North,1,0.0,0.0,83,0.00,CLR,SKC,0.00,WeatherDisplay:10.37,2013-07-14 04:30:00,
2013-07-14 06:40:00,58.3,52.8,30.03,North,1,0.0,0.0,82,0.00,CLR,SKC,0.00,WeatherDisplay:10.37,2013-07-14 04:40:00,
2013-07-14 06:50:00,59.5,53.3,30.03,North,1,0.0,0.0,80,0.00,CLR,SKC,0.00,WeatherDisplay:10.37,2013-07-14 04:50:00,
2013-07-14 07:00:00,60.9,54.3,30.02,North,1,0.0,0.0,79,0.00,CLR,SKC,0.00,WeatherDisplay:10.37,2013-07-14 05:00:00,
2013-07-14 07:10:00,61.0,53.7,30.03,North,1,0.0,0.0,77,0.00,CLR,SKC,0.00,WeatherDisplay:10.37,2013-07-14 05:10:00,
2013-07-14 07:20:00,62.5,55.2,30.03,North,1,0.0,0.0,77,0.00,CLR,SKC,0.00,WeatherDisplay:10.37,2013-07-14 05:20:00,
2013-07-14 07:30:00,64.1,56.0,30.03,North,1,0.0,0.0,75,0.00,CLR,SKC,0.00,WeatherDisplay:10.37,2013-07-14 05:30:00,
2013-07-14 07:40:00,64.2,55.4,30.03,North,1,0.0,0.0,73,0.00,CLR,SKC,0.00,WeatherDisplay:10.37,2013-07-14 05:40:00,
2013-07-14 07:50:00,65.6,56.3,30.03,North,1,0.0,0.0,72,0.00,CLR,SKC,0.00,WeatherDisplay:10.37,2013-07-14 05:50:00,
2013-07-14 08:00:00,65.8,56.1,30.03,North,1,0.0,0.0,71,0.00,CLR,SKC,0.00,WeatherDisplay:10.37,2013-07-14 06:00:00,
2013-07-14 08:10:00,67.1,56.2,30.03,North,1,0.0,0.0,68,0.00,CLR,SKC,0.00,WeatherDisplay:10.37,2013-07-14 06:10:00,
2013-07-14 08:20:00,68.1,56.3,30.03,North,1,0.0,0.0,66,0.00,CLR,SKC,0.00,WeatherDisplay:10.37,2013-07-14 06:20:00,
2013-07-14 08:30:00,69.1,56.4,30.03,North,1,0.0,0.0,64,0.00,CLR,SKC,0.00,WeatherDisplay:10.37,2013-07-14 06:30:00,
2013-07-14 08:40:00,70.2,56.1,30.03,North,1,0.0,0.0,61,0.00,CLR,SKC,0.00,WeatherDisplay:10.37,2013-07-14 06:40:00,
2013-07-14 08:50:00,70.8,56.7,30.04,North,1,0.0,0.0,61,0.00,CLR,SKC,0.00,WeatherDisplay:10.37,2013-07-14 06:50:00,
2013-07-14 09:00:00,71.4,56.3,30.03,North,1,0.0,0.0,59,0.00,CLR,SKC,0.00,WeatherDisplay:10.37,2013-07-14 07:00:00,
2013-07-14 09:10:00,71.8,55.7,30.03,North,1,0.0,0.0,57,0.00,CLR,SKC,0.00,WeatherDisplay:10.37,2013-07-14 07:10:00,
2013-07-14 09:20:00,72.3,55.7,30.03,North,1,0.0,0.0,56,0.00,CLR,SKC,0.00,WeatherDisplay:10.37,2013-07-14 07:20:00,
2013-07-14 09:30:00,72.6,54.0,30.03,North,1,0.0,0.0,52,0.00,CLR,SKC,0.00,WeatherDisplay:10.37,2013-07-14 07:30:00,
2013-07-14 09:40:00,72.7,53.5,30.03,North,1,0.0,0.0,51,0.00,CLR,SKC,0.00,WeatherDisplay:10.37,2013-07-14 07:40:00,
2013-07-14 09:50:00,73.4,53.6,30.03,North,1,0.0,0.0,50,0.00,CLR,SKC,0.00,WeatherDisplay:10.37,2013-07-14 07:50:00,
2013-07-14 10:00:00,73.9,51.8,30.03,North,1,0.0,0.0,46,0.00,CLR,SKC,0.00,WeatherDisplay:10.37,2013-07-14 08:00:00,
2013-07-14 10:10:00,74.1,50.8,30.02,North,1,0.0,0.0,44,0.00,CLR,SKC,0.00,WeatherDisplay:10.37,2013-07-14 08:10:00,
2013-07-14 10:20:00,74.5,50.5,30.03,North,1,0.0,0.0,43,0.00,CLR,SKC,0.00,WeatherDisplay:10.37,2013-07-14 08:20:00,
2013-07-14 10:30:00,74.9,51.5,30.03,North,1,0.0,0.0,44,0.00,CLR,SKC,0.00,WeatherDisplay:10.37,2013-07-14 08:30:00,
2013-07-14 10:40:00,74.5,52.9,30.03,North,1,0.0,0.0,47,0.00,CLR,SKC,0.00,WeatherDisplay:10.37,2013-07-14 08:40:00,
2013-07-14 10:50:00,75.0,51.0,30.03,North,1,0.0,0.0,43,0.00,CLR,SKC,0.00,WeatherDisplay:10.37,2013-07-14 08:50:00,
2013-07-14 11:00:00,75.4,50.7,30.03,North,1,0.0,0.0,42,0.00,CLR,SKC,0.00,WeatherDisplay:10.37,2013-07-14 09:00:00,
2013-07-14 11:10:00,76.1,50.7,30.03,North,1,0.0,0.0,41,0.00,CLR,SKC,0.00,WeatherDisplay:10.37,2013-07-14 09:10:00,
2013-07-14 11:20:00,76.6,51.8,30.03,North,1,0.0,0.0,42,0.00,CLR,SKC,0.00,WeatherDisplay:10.37,2013-07-14 09:20:00,
2013-07-14 11:30:00,76.3,51.6,30.02,North,1,0.0,0.0,42,0.00,CLR,SKC,0.00,WeatherDisplay:10.37,2013-07-14 09:30:00,
2013-07-14 11:40:00,76.5,51.0,30.03,North,1,0.0,0.0,41,0.00,CLR,SKC,0.00,WeatherDisplay:10.37,2013-07-14 09:40:00,
2013-07-14 11:50:00,76.8,52.0,30.02,North,1,0.0,0.0,42,0.00,CLR,SKC,0.00,WeatherDisplay:10.37,2013-07-14 09:50:00,
2013-07-14 12:00:00,77.4,51.1,30.02,North,1,0.0,0.0,40,0.00,CLR,SKC,0.00,WeatherDisplay:10.37,2013-07-14 10:00:00,
2013-07-14 12:10:00,77.4,51.1,30.02,North,1,0.0,0.0,40,0.00,CLR,SKC,0.00,WeatherDisplay:10.37,2013-07-14 10:10:00,
2013-07-14 12:20:00,77.9,50.2,30.02,North,1,0.0,0.0,38,0.00,CLR,SKC,0.00,WeatherDisplay:10.37,2013-07-14 10:20:00,
2013-07-14 12:30:00,78.6,50.9,30.02,North,1,0.0,0.0,38,0.00,CLR,SKC,0.00,WeatherDisplay:10.37,2013-07-14 10:30:00,
2013-07-14 12:40:00,78.6,50.2,30.02,North,1,0.0,0.0,37,0.00,CLR,SKC,0.00,WeatherDisplay:10.37,2013-07-14 10:40:00,
2013-07-14 12:50:00,79.0,49.7,30.02,North,1,0.0,0.0,36,0.00,CLR,SKC,0.00,WeatherDisplay:10.37,2013-07-14 10:50:00,
2013-07-14 13:00:00,79.5,50.2,30.02,North,1,0.0,0.0,36,0.00,CLR,SKC,0.00,WeatherDisplay:10.37,2013-07-14 11:00:00,
2013-07-14 13:10:00,79.6,50.3,30.01,North,1,0.0,0.0,36,0.00,CLR,SKC,0.00,WeatherDisplay:10.37,2013-07-14 11:10:00,
2013-07-14 13:20:00,79.5,50.2,30.02,North,1,0.0,0.0,36,0.00,CLR,SKC,0.00,WeatherDisplay:10.37,2013-07-14 11:20:00,
2013-07-14 13:30:00,79.5,49.5,30.01,North,1,0.0,0.0,35,0.00,CLR,SKC,0.00,WeatherDisplay:10.37,2013-07-14 11:30:00,
2013-07-14 13:40:00,80.2,50.9,30.01,North,1,0.0,0.0,36,0.00,CLR,SKC,0.00,WeatherDisplay:10.37,2013-07-14 11:40:00,
2013-07-14 13:50:00,80.1,49.9,30.01,North,1,0.0,0.0,35,0.00,CLR,SKC,0.00,WeatherDisplay:10.37,2013-07-14 11:50:00,
2013-07-14 14:00:00,80.4,51.0,30.01,North,1,0.0,0.0,36,0.00,CLR,SKC,0.00,WeatherDisplay:10.37,2013-07-14 12:00:00,
2013-07-14 14:10:00,80.7,50.5,30.00,North,1,0.0,0.0,35,0.00,CLR,SKC,0.00,WeatherDisplay:10.37,2013-07-14 12:10:00,
2013-07-14 14:20:00,81.0,51.5,30.00,North,1,0.0,0.0,36,0.00,CLR,SKC,0.00,WeatherDisplay:10.37,2013-07-14 12:20:00,
2013-07-14 14:30:00,81.1,51.7,30.01,North,1,0.0,0.0,36,0.00,CLR,SKC,0.00,WeatherDisplay:10.37,2013-07-14 12:30:00,
2013-07-14 14:40:00,81.1,51.7,30.00,North,1,0.0,0.0,36,0.00,CLR,SKC,0.00,WeatherDisplay:10.37,2013-07-14 12:40:00,
2013-07-14 14:50:00,81.1,52.4,30.00,North,1,0.0,0.0,37,0.00,CLR,SKC,0.00,WeatherDisplay:10.37,2013-07-14 12:50:00,
2013-07-14 15:00:00,81.5,52.0,30.00,North,1,0.0,0.0,36,0.00,CLR,SKC,0.00,WeatherDisplay:10.37,2013-07-14 13:00:00,
2013-07-14 15:10:00,81.4,51.9,30.00,North,1,0.0,0.0,36,0.00,CLR,SKC,0.00,WeatherDisplay:10.37,2013-07-14 13:10:00,
2013-07-14 15:20:00,81.3,52.6,30.00,North,1,0.0,0.0,37,0.00,CLR,SKC,0.00,WeatherDisplay:10.37,2013-07-14 13:20:00,
2013-07-14 15:30:00,81.7,52.9,30.00,North,1,0.0,0.0,37,0.00,CLR,SKC,0.00,WeatherDisplay:10.37,2013-07-14 13:30:00,
2013-07-14 15:40:00,82.1,53.3,30.00,North,1,0.0,0.0,37,0.00,CLR,SKC,0.00,WeatherDisplay:10.37,2013-07-14 13:40:00,
2013-07-14 15:50:00,82.0,53.2,30.00,North,1,0.0,0.0,37,0.00,CLR,SKC,0.00,WeatherDisplay:10.37,2013-07-14 13:50:00,
2013-07-14 16:00:00,82.0,53.9,30.00,North,1,0.0,0.0,38,0.00,CLR,SKC,0.00,WeatherDisplay:10.37,2013-07-14 14:00:00,
2013-07-14 16:10:00,82.0,54.6,30.00,North,1,0.0,0.0,39,0.00,CLR,SKC,0.00,WeatherDisplay:10.37,2013-07-14 14:10:00,
2013-07-14 16:20:00,82.2,53.3,30.00,North,1,0.0,0.0,37,0.00,CLR,SKC,0.00,WeatherDisplay:10.37,2013-07-14 14:20:00,
2013-07-14 16:30:00,82.0,54.6,29.99,North,1,0.0,0.0,39,0.00,CLR,SKC,0.00,WeatherDisplay:10.37,2013-07-14 14:30:00,
2013-07-14 16:40:00,81.5,53.4,30.00,North,1,0.0,0.0,38,0.00,CLR,SKC,0.00,WeatherDisplay:10.37,2013-07-14 14:40:00,
2013-07-14 16:50:00,81.3,54.7,30.00,North,1,0.0,0.0,40,0.00,CLR,SKC,0.00,WeatherDisplay:10.37,2013-07-14 14:50:00,
2013-07-14 17:00:00,81.5,54.2,30.00,North,1,0.0,0.0,39,0.00,CLR,SKC,0.00,WeatherDisplay:10.37,2013-07-14 15:00:00,
2013-07-14 17:10:00,81.1,53.8,30.00,North,1,0.0,0.0,39,0.00,CLR,SKC,0.00,WeatherDisplay:10.37,2013-07-14 15:10:00,
2013-07-14 17:20:00,79.7,53.2,29.99,North,1,0.0,0.0,40,0.00,CLR,SKC,0.00,WeatherDisplay:10.37,2013-07-14 15:20:00,
2013-07-14 17:30:00,79.6,53.8,30.00,North,1,0.0,0.0,41,0.00,CLR,SKC,0.00,WeatherDisplay:10.37,2013-07-14 15:30:00,
2013-07-14 17:40:00,79.5,54.4,30.00,North,1,0.0,0.0,42,0.00,CLR,SKC,0.00,WeatherDisplay:10.37,2013-07-14 15:40:00,
2013-07-14 17:50:00,79.5,53.8,29.99,North,1,0.0,0.0,41,0.00,CLR,SKC,0.00,WeatherDisplay:10.37,2013-07-14 15:50:00,
2013-07-14 18:00:00,77.9,53.0,30.00,North,1,0.0,0.0,42,0.00,CLR,SKC,0.00,WeatherDisplay:10.37,2013-07-14 16:00:00,
2013-07-14 18:10:00,78.0,53.0,29.99,North,1,0.0,0.0,42,0.00,CLR,SKC,0.00,WeatherDisplay:10.37,2013-07-14 16:10:00,
2013-07-14 18:20:00,77.5,53.3,29.99,North,1,0.0,0.0,43,0.00,CLR,SKC,0.00,WeatherDisplay:10.37,2013-07-14 16:20:00,
2013-07-14 18:30:00,77.4,52.5,29.99,North,1,0.0,0.0,42,0.00,CLR,SKC,0.00,WeatherDisplay:10.37,2013-07-14 16:30:00,
2013-07-14 18:40:00,77.3,53.1,30.00,North,1,0.0,0.0,43,0.00,CLR,SKC,0.00,WeatherDisplay:10.37,2013-07-14 16:40:00,
2013-07-14 18:50:00,76.8,52.6,30.00,North,1,0.0,0.0,43,0.00,CLR,SKC,0.00,WeatherDisplay:10.37,2013-07-14 16:50:00,
2013-07-14 19:00:00,76.3,52.1,29.99,North,1,0.0,0.0,43,0.00,CLR,SKC,0.00,WeatherDisplay:10.37,2013-07-14 17:00:00,
2013-07-14 19:10:00,76.1,52.6,29.99,North,1,0.0,0.0,44,0.00,CLR,SKC,0.00,WeatherDisplay:10.37,2013-07-14 17:10:00,
2013-07-14 19:20:00,75.7,52.8,29.99,North,1,0.0,0.0,45,0.00,CLR,SKC,0.00,WeatherDisplay:10.37,2013-07-14 17:20:00,
2013-07-14 19:30:00,75.0,52.8,29.99,North,1,0.0,0.0,46,0.00,CLR,SKC,0.00,WeatherDisplay:10.37,2013-07-14 17:30:00,
2013-07-14 19:40:00,74.4,53.4,29.99,North,1,0.0,0.0,48,0.00,CLR,SKC,0.00,WeatherDisplay:10.37,2013-07-14 17:40:00,
2013-07-14 19:50:00,73.8,53.4,29.99,North,1,0.0,0.0,49,0.00,CLR,SKC,0.00,WeatherDisplay:10.37,2013-07-14 17:50:00,
2013-07-14 20:00:00,73.0,53.3,29.99,North,1,0.0,0.0,50,0.00,CLR,SKC,0.00,WeatherDisplay:10.37,2013-07-14 18:00:00,
2013-07-14 20:10:00,72.1,53.0,30.00,North,1,0.0,0.0,51,0.00,CLR,SKC,0.00,WeatherDisplay:10.37,2013-07-14 18:10:00,
2013-07-14 20:20:00,71.4,53.4,30.00,North,1,0.0,0.0,53,0.00,CLR,SKC,0.00,WeatherDisplay:10.37,2013-07-14 18:20:00,
2013-07-14 20:30:00,70.5,53.1,30.00,North,1,0.0,0.0,54,0.00,CLR,SKC,0.00,WeatherDisplay:10.37,2013-07-14 18:30:00,
2013-07-14 20:40:00,69.6,53.2,29.99,North,1,0.0,0.0,56,0.00,CLR,SKC,0.00,WeatherDisplay:10.37,2013-07-14 18:40:00,
2013-07-14 20:50:00,68.9,52.6,30.00,North,1,0.0,0.0,56,0.00,CLR,SKC,0.00,WeatherDisplay:10.37,2013-07-14 18:50:00,
2013-07-14 21:00:00,68.2,52.8,30.00,North,1,0.0,0.0,58,0.00,CLR,SKC,0.00,WeatherDisplay:10.37,2013-07-14 19:00:00,
2013-07-14 21:10:00,67.6,53.3,30.00,North,1,0.0,0.0,60,0.00,CLR,SKC,0.00,WeatherDisplay:10.37,2013-07-14 19:10:00,
2013-07-14 21:20:00,66.8,53.4,30.01,North,1,0.0,0.0,62,0.00,CLR,SKC,0.00,WeatherDisplay:10.37,2013-07-14 19:20:00,
2013-07-14 21:30:00,66.4,53.0,30.01,North,1,0.0,0.0,62,0.00,CLR,SKC,0.00,WeatherDisplay:10.37,2013-07-14 19:30:00,
2013-07-14 21:40:00,65.8,52.9,30.01,North,1,0.0,0.0,63,0.00,CLR,SKC,0.00,WeatherDisplay:10.37,2013-07-14 19:40:00,
2013-07-14 21:50:00,65.2,52.3,30.01,North,1,0.0,0.0,63,0.00,CLR,SKC,0.00,WeatherDisplay:10.37,2013-07-14 19:50:00,
2013-07-14 22:00:00,64.7,52.6,30.02,North,1,0.0,0.0,65,0.00,CLR,SKC,0.00,WeatherDisplay:10.37,2013-07-14 20:00:00,
2013-07-14 22:10:00,64.2,52.2,30.02,North,1,0.0,0.0,65,0.00,CLR,SKC,0.00,WeatherDisplay:10.37,2013-07-14 20:10:00,
2013-07-14 22:20:00,63.7,52.1,30.01,North,1,0.0,0.0,66,0.00,CLR,SKC,0.00,WeatherDisplay:10.37,2013-07-14 20:20:00,
2013-07-14 22:30:00,63.3,52.6,30.02,North,1,0.0,0.0,68,0.00,CLR,SKC,0.00,WeatherDisplay:10.37,2013-07-14 20:30:00,
2013-07-14 22:40:00,63.0,52.7,30.02,North,1,0.0,0.0,69,0.00,CLR,SKC,0.00,WeatherDisplay:10.37,2013-07-14 20:40:00,
2013-07-14 22:50:00,62.8,52.8,30.02,North,1,0.0,0.0,70,0.00,CLR,SKC,0.00,WeatherDisplay:10.37,2013-07-14 20:50:00,
2013-07-14 23:00:00,62.2,52.7,30.02,North,1,0.0,0.0,71,0.00,CLR,SKC,0.00,WeatherDisplay:10.37,2013-07-14 21:00:00,
2013-07-14 23:10:00,61.6,52.8,30.02,North,1,0.0,0.0,73,0.00,CLR,SKC,0.00,WeatherDisplay:10.37,2013-07-14 21:10:00,
2013-07-14 23:20:00,61.2,52.8,30.02,North,1,0.0,0.0,74,0.00,CLR,SKC,0.00,WeatherDisplay:10.37,2013-07-14 21:20:00,
2013-07-14 23:30:00,61.0,53.0,30.02,North,1,0.0,0.0,75,0.00,CLR,SKC,0.00,WeatherDisplay:10.37,2013-07-14 21:30:00,
2013-07-14 23:40:00,60.6,52.6,30.02,North,1,0.0,0.0,75,0.00,CLR,SKC,0.00,WeatherDisplay:10.37,2013-07-14 21:40:00,
2013-07-14 23:50:00,60.6,53.0,30.02,North,1,0.0,0.0,76,0.00,CLR,SKC,0.00,WeatherDisplay:10.37,2013-07-14 21:50:00,